Terminal Aerodrome Forecast
Issued by NWS

Home | Current Version | Previous Version | Text Only | Print | Product List | Glossary On
Versions: 1 2 3 4 5 6 7 8 9 10 11 12 13 14 15 16 17 18 19 20 21
000
FTUS43 KDVN 251100 RRA
TAFCID
TAF
KCID 251140Z 2512/2612 08006KT P6SM BKN050
     FM251500 11007KT 3SM -SN BR BKN030
     FM251900 09010KT 1SM -SN BR OVC010
     FM252100 07011KT 1/2SM SN FZFG OVC004
     FM260100 02013KT 3SM -SN OVC005
     FM260900 36012KT 6SM BR BKN008=

USA.gov is the U.S. government's official web portal to all federal, state and local government web resources and services.